Location: Unspecified
(0.0000°N, 0.0000°E)
Time: 23:46:34
(UTC+00:00)

Explorer 7 - Visible Passes

Search period start: 19 October 2017 00:00
Search period end: 29 October 2017 00:00
Orbit: 486 x 683 km, 50.3° (Epoch: 19 October)

Date Brightness Start Highest point End Pass type
(mag) Time Alt. Az. Time Alt. Az. Time Alt. Az.
20 Oct 9.2 19:00:51 10° SSE 19:02:51 15° SE 19:02:51 15° SE visible
21 Oct 8.3 19:05:05 10° S 19:09:03 29° SE 19:09:03 29° SE visible
22 Oct 7.2 19:10:06 10° SSW 19:14:58 59° SE 19:15:20 57° ESE visible
23 Oct 7.4 19:15:38 10° SW 19:20:33 68° NW 19:21:41 49° N visible
24 Oct 8.7 19:21:41 10° WSW 19:26:07 33° NW 19:28:03 24° NNW visible
25 Oct 9.7 19:28:31 10° W 19:31:43 17° NW 19:34:26 11° NNW visible
28 Oct 9.4 04:23:03 10° NNE 04:24:43 12° NE 04:26:22 10° ENE visible
28 Oct 9.3 18:03:53 10° WSW 18:07:57 26° NW 18:11:59 10° N visible
